| time (UTC) | temp F | wind direction | speed MPH | gust MPH | rain 1hr in | rain 24hr in | rain mn in | humidity % | barometer mb |
| 20260902005545 | 49 | 205 | 0.0 | 0.0 | 0.00 | 0.00 | 0.00 | 100 | 1002.4 |
| 20260902005049 | 49 | 284 | 0.0 | 0.0 | 0.00 | 0.00 | 0.00 | 100 | 1002.4 |
| 20260902004531 | 49 | 245 | 0.0 | 0.0 | 0.00 | 0.00 | 0.00 | 100 | 1002.4 |
| 20260902004041 | 49 | 243 | 0.0 | 0.0 | 0.00 | 0.00 | 0.00 | 100 | 1002.4 |
| 20260902003523 | 49 | 192 | 0.0 | 0.0 | 0.00 | 0.00 | 0.00 | 100 | 1002.4 |
| 20260902003102 | 49 | 247 | 0.0 | 0.0 | 0.00 | 0.00 | 0.00 | 100 | 1002.4 |
| 20260902002530 | 49 | 168 | 0.0 | 0.0 | 0.00 | 0.00 | 0.00 | 100 | 1002.4 |
| 20260902002057 | 49 | 236 | 0.0 | 0.0 | 0.00 | 0.00 | 0.00 | 100 | 1002.4 |
| 20260902001529 | 49 | 236 | 0.0 | 0.0 | 0.00 | 0.00 | 0.00 | 100 | 1002.4 |
| 20260902001035 | 49 | 225 | 0.0 | 0.0 | 0.00 | 0.00 | 0.00 | 100 | 1002.4 |
| 20260902000526 | 49 | 184 | 0.0 | 0.0 | 0.00 | 0.00 | 0.00 | 100 | 1002.4 |
| 20260902000028 | 49 | 230 | 0.0 | 0.0 | 0.00 | 0.00 | 0.00 | 100 | 1002.4 |
| 20260901235543 | 49 | 151 | 0.0 | 0.0 | 0.00 | 0.00 | 0.00 | 100 | 1002.4 |
| 20260901235027 | 49 | 277 | 0.0 | 0.0 | 0.00 | 0.00 | 0.00 | 100 | 1002.4 |
| 20260901234527 | 49 | 225 | 0.0 | 0.0 | 0.00 | 0.00 | 0.00 | 100 | 1002.4 |
| 20260901234037 | 49 | 146 | 0.0 | 0.0 | 0.00 | 0.00 | 0.00 | 100 | 1002.4 |
| 20260901233543 | 49 | 190 | 0.0 | 0.0 | 0.00 | 0.00 | 0.00 | 100 | 1002.4 |
| 20260901233025 | 49 | 235 | 0.0 | 0.0 | 0.00 | 0.00 | 0.00 | 100 | 1002.4 |
| 20260901232531 | 49 | 257 | 0.0 | 0.0 | 0.00 | 0.00 | 0.00 | 100 | 1002.6 |
| 20260901232033 | 49 | 267 | 0.0 | 0.0 | 0.00 | 0.00 | 0.00 | 100 | 1002.6 |
| 20260901231520 | 49 | 253 | 0.0 | 0.0 | 0.00 | 0.00 | 0.00 | 100 | 1002.6 |
| 20260901231024 | 49 | 208 | 0.0 | 0.0 | 0.00 | 0.00 | 0.00 | 100 | 1002.8 |
| 20260901230533 | 49 | 222 | 0.0 | 0.0 | 0.00 | 0.00 | 0.00 | 100 | 1002.8 |
| 20260901230051 | 49 | 223 | 0.0 | 0.0 | 0.00 | 0.00 | 0.00 | 100 | 1002.8 |
| 20260901225534 | 49 | 276 | 0.0 | 0.0 | 0.00 | 0.00 | 0.00 | 100 | 1002.7 |
| 20260901225027 | 49 | 204 | 0.0 | 0.0 | 0.00 | 0.00 | 0.00 | 100 | 1002.7 |
| 20260901224548 | 50 | 157 | 0.0 | 0.0 | 0.00 | 0.00 | 0.00 | 100 | 1002.7 |
| 20260901224027 | 50 | 208 | 0.0 | 0.0 | 0.00 | 0.00 | 0.00 | 100 | 1002.8 |
| 20260901223535 | 50 | 212 | 0.0 | 0.0 | 0.00 | 0.00 | 0.00 | 100 | 1002.8 |
| 20260901223026 | 49 | 187 | 0.0 | 0.0 | 0.00 | 0.00 | 0.00 | 99 | 1002.8 |
| 20260901222556 | 49 | 185 | 0.0 | 0.0 | 0.00 | 0.00 | 0.00 | 99 | 1002.8 |
| 20260901222055 | 49 | 247 | 0.0 | 0.0 | 0.00 | 0.00 | 0.00 | 99 | 1002.8 |
| 20260901221535 | 49 | 190 | 0.0 | 0.0 | 0.00 | 0.00 | 0.00 | 99 | 1002.8 |
| 20260901221022 | 49 | 206 | 0.0 | 0.0 | 0.00 | 0.00 | 0.00 | 98 | 1002.8 |
| 20260901220538 | 49 | 209 | 0.0 | 0.0 | 0.00 | 0.00 | 0.00 | 98 | 1002.8 |
| 20260901220101 | 49 | 191 | 0.0 | 0.0 | 0.00 | 0.00 | 0.00 | 98 | 1002.8 |
| 20260901215616 | 49 | 233 | 0.0 | 0.0 | 0.00 | 0.00 | 0.00 | 98 | 1002.7 |
| 20260901215031 | 49 | 216 | 0.0 | 0.0 | 0.00 | 0.00 | 0.00 | 98 | 1002.7 |
| 20260901214535 | 49 | 233 | 0.0 | 0.0 | 0.00 | 0.00 | 0.00 | 98 | 1002.7 |
| 20260901214049 | 49 | 219 | 0.0 | 0.0 | 0.00 | 0.00 | 0.00 | 98 | 1002.7 |
| 20260901213530 | 50 | 209 | 0.0 | 0.0 | 0.00 | 0.00 | 0.00 | 98 | 1002.7 |
| 20260901213045 | 50 | 209 | 0.0 | 0.0 | 0.00 | 0.00 | 0.00 | 97 | 1002.7 |
| 20260901212548 | 50 | 209 | 0.0 | 0.0 | 0.00 | 0.00 | 0.00 | 97 | 1002.8 |
| 20260901212033 | 49 | 219 | 0.0 | 0.0 | 0.00 | 0.00 | 0.00 | 97 | 1002.8 |
| 20260901211523 | 49 | 230 | 0.0 | 0.0 | 0.00 | 0.00 | 0.00 | 97 | 1002.8 |
| 20260901211023 | 49 | 219 | 0.0 | 0.0 | 0.00 | 0.00 | 0.00 | 96 | 1002.8 |
| 20260901210537 | 49 | 245 | 0.0 | 0.0 | 0.00 | 0.00 | 0.00 | 96 | 1002.8 |
| 20260901210044 | 49 | 238 | 0.0 | 0.0 | 0.00 | 0.00 | 0.01 | 96 | 1002.8 |
| 20260901205527 | 50 | 206 | 0.0 | 0.0 | 0.00 | 0.00 | 0.01 | 96 | 1002.9 |
| 20260901205029 | 50 | 199 | 0.0 | 0.0 | 0.00 | 0.00 | 0.01 | 96 | 1002.9 |
| 20260901204533 | 50 | 195 | 0.0 | 0.0 | 0.00 | 0.00 | 0.01 | 95 | 1002.9 |
| 20260901204042 | 50 | 218 | 0.0 | 0.0 | 0.00 | 0.00 | 0.01 | 95 | 1002.9 |
| 20260901203528 | 50 | 225 | 0.0 | 0.0 | 0.00 | 0.00 | 0.01 | 94 | 1002.9 |
| 20260901203022 | 50 | 225 | 0.0 | 0.0 | 0.00 | 0.00 | 0.01 | 94 | 1002.9 |
| 20260901202532 | 50 | 219 | 0.0 | 0.0 | 0.00 | 0.00 | 0.01 | 94 | 1002.9 |
| 20260901202035 | 50 | 219 | 0.0 | 0.0 | 0.00 | 0.00 | 0.01 | 93 | 1002.9 |
| 20260901201552 | 51 | 219 | 0.0 | 0.0 | 0.00 | 0.00 | 0.01 | 93 | 1002.9 |
| 20260901201034 | 51 | 218 | 0.0 | 0.0 | 0.00 | 0.00 | 0.01 | 93 | 1002.9 |
| 20260901200534 | 51 | 218 | 0.0 | 0.0 | 0.00 | 0.00 | 0.01 | 93 | 1002.9 |
| 20260901200026 | 51 | 204 | 0.0 | 0.0 | 0.00 | 0.00 | 0.01 | 92 | 1002.9 |
| 20260901195537 | 52 | 204 | 0.0 | 0.0 | 0.00 | 0.00 | 0.01 | 92 | 1002.7 |
| 20260901195022 | 52 | 204 | 0.0 | 0.0 | 0.00 | 0.00 | 0.01 | 92 | 1002.7 |
| 20260901194546 | 52 | 204 | 0.0 | 0.0 | 0.00 | 0.00 | 0.01 | 92 | 1002.7 |
| 20260901194028 | 52 | 230 | 0.0 | 0.0 | 0.00 | 0.00 | 0.01 | 91 | 1002.8 |
| 20260901193530 | 52 | 230 | 0.0 | 0.0 | 0.00 | 0.00 | 0.01 | 91 | 1002.8 |
| 20260901193023 | 53 | 230 | 0.0 | 0.0 | 0.00 | 0.00 | 0.01 | 90 | 1002.8 |
| 20260901192523 | 53 | 230 | 0.0 | 0.0 | 0.00 | 0.00 | 0.01 | 90 | 1002.7 |
| 20260901192057 | 53 | 230 | 0.0 | 0.0 | 0.00 | 0.00 | 0.01 | 91 | 1002.7 |
| 20260901191542 | 53 | 230 | 0.0 | 0.0 | 0.00 | 0.00 | 0.01 | 91 | 1002.7 |
| 20260901191024 | 53 | 230 | 0.0 | 0.0 | 0.00 | 0.00 | 0.01 | 91 | 1002.8 |
| 20260901190541 | 53 | 230 | 0.0 | 0.0 | 0.00 | 0.00 | 0.01 | 91 | 1002.8 |
| 20260901190023 | 53 | 269 | 0.0 | 0.0 | 0.00 | 0.00 | 0.01 | 92 | 1002.8 |
| 20260901185600 | 53 | 228 | 0.0 | 0.0 | 0.00 | 0.00 | 0.01 | 92 | 1002.9 |
| 20260901185020 | 53 | 221 | 0.0 | 0.0 | 0.00 | 0.00 | 0.01 | 92 | 1002.9 |
| 20260901184533 | 53 | 223 | 0.0 | 0.0 | 0.00 | 0.00 | 0.01 | 92 | 1002.9 |
| 20260901184029 | 53 | 223 | 0.0 | 0.0 | 0.00 | 0.00 | 0.01 | 92 | 1002.9 |
| 20260901183550 | 53 | 228 | 0.0 | 0.0 | 0.00 | 0.00 | 0.01 | 92 | 1002.9 |
| 20260901183038 | 53 | 226 | 0.0 | 0.0 | 0.00 | 0.00 | 0.01 | 92 | 1002.9 |
| 20260901182521 | 53 | 166 | 0.0 | 0.0 | 0.00 | 0.00 | 0.01 | 91 | 1002.9 |
| 20260901182022 | 53 | 235 | 0.0 | 0.0 | 0.00 | 0.00 | 0.01 | 90 | 1002.9 |
| 20260901181532 | 53 | 228 | 0.0 | 0.0 | 0.00 | 0.00 | 0.01 | 89 | 1002.9 |
| 20260901181034 | 53 | 209 | 0.0 | 0.0 | 0.00 | 0.00 | 0.01 | 88 | 1002.9 |
| 20260901180537 | 53 | 209 | 0.0 | 0.0 | 0.00 | 0.00 | 0.01 | 87 | 1002.9 |
| 20260901180024 | 54 | 209 | 0.0 | 0.0 | 0.00 | 0.00 | 0.01 | 87 | 1002.9 |
| 20260901175539 | 54 | 209 | 0.0 | 0.0 | 0.00 | 0.00 | 0.01 | 86 | 1002.8 |
| 20260901175034 | 55 | 209 | 0.0 | 0.0 | 0.00 | 0.00 | 0.01 | 85 | 1002.8 |
| 20260901174536 | 55 | 209 | 0.0 | 0.0 | 0.00 | 0.00 | 0.01 | 85 | 1002.8 |
| 20260901174020 | 55 | 209 | 0.0 | 0.0 | 0.00 | 0.00 | 0.01 | 85 | 1002.8 |
| 20260901173538 | 55 | 209 | 0.0 | 0.0 | 0.00 | 0.00 | 0.01 | 85 | 1002.8 |
| 20260901173058 | 56 | 209 | 0.0 | 0.0 | 0.00 | 0.00 | 0.01 | 84 | 1002.9 |
| 20260901172530 | 56 | 209 | 0.0 | 0.0 | 0.00 | 0.00 | 0.01 | 84 | 1002.7 |
| 20260901172050 | 56 | 209 | 0.0 | 0.0 | 0.00 | 0.00 | 0.01 | 83 | 1002.7 |
| 20260901171537 | 57 | 310 | 0.0 | 0.0 | 0.00 | 0.00 | 0.01 | 82 | 1002.7 |
| 20260901171039 | 57 | 218 | 0.0 | 0.0 | 0.00 | 0.00 | 0.01 | 82 | 1002.6 |
| 20260901170520 | 57 | 204 | 0.0 | 0.0 | 0.00 | 0.00 | 0.01 | 81 | 1002.6 |
| 20260901170031 | 58 | 260 | 0.0 | 0.0 | 0.00 | 0.00 | 0.01 | 80 | 1002.6 |
| 20260901165533 | 58 | 355 | 0.0 | 0.0 | 0.00 | 0.00 | 0.01 | 80 | 1002.6 |
| 20260901165045 | 58 | 50 | 0.0 | 0.0 | 0.00 | 0.00 | 0.01 | 79 | 1002.6 |
| 20260901164525 | 59 | 215 | 0.0 | 0.0 | 0.00 | 0.00 | 0.01 | 79 | 1002.6 |
| 20260901164101 | 59 | 252 | 0.0 | 0.0 | 0.00 | 0.00 | 0.01 | 77 | 1002.5 |
| 20260901163529 | 59 | 266 | 0.0 | 0.0 | 0.00 | 0.00 | 0.01 | 76 | 1002.5 |
| 20260901163032 | 60 | 315 | 1.0 | 0.0 | 0.00 | 0.00 | 0.01 | 76 | 1002.5 |
| 20260901162543 | 60 | 311 | 1.0 | 0.0 | 0.00 | 0.00 | 0.01 | 76 | 1002.4 |
| 20260901162036 | 60 | 167 | 1.0 | 0.0 | 0.00 | 0.00 | 0.01 | 76 | 1002.4 |
| 20260901161535 | 61 | 302 | 1.0 | 0.0 | 0.00 | 0.00 | 0.01 | 76 | 1002.4 |
| 20260901161046 | 61 | 342 | 0.0 | 0.0 | 0.00 | 0.00 | 0.01 | 75 | 1002.3 |
| 20260901160555 | 61 | 302 | 0.0 | 0.0 | 0.00 | 0.00 | 0.01 | 75 | 1002.3 |
| 20260901160021 | 61 | 270 | 0.0 | 0.0 | 0.00 | 0.00 | 0.01 | 74 | 1002.3 |
| 20260901155526 | 61 | 326 | 0.0 | 0.0 | 0.00 | 0.00 | 0.01 | 74 | 1002.1 |
| 20260901155030 | 61 | 342 | 0.0 | 0.0 | 0.00 | 0.00 | 0.01 | 74 | 1002.1 |
| 20260901154523 | 62 | 290 | 0.0 | 0.0 | 0.00 | 0.00 | 0.01 | 72 | 1002.1 |
| 20260901154022 | 62 | 181 | 0.0 | 0.0 | 0.00 | 0.00 | 0.01 | 72 | 1002.0 |
| 20260901153534 | 62 | 305 | 1.0 | 0.0 | 0.00 | 0.00 | 0.01 | 72 | 1002.0 |
| 20260901153051 | 62 | 194 | 0.0 | 0.0 | 0.00 | 0.00 | 0.01 | 72 | 1002.0 |
| 20260901152532 | 62 | 314 | 0.0 | 0.0 | 0.00 | 0.00 | 0.01 | 72 | 1001.9 |
| 20260901152020 | 63 | 341 | 0.0 | 0.0 | 0.00 | 0.00 | 0.01 | 70 | 1001.9 |
| 20260901151527 | 63 | 317 | 1.0 | 0.0 | 0.00 | 0.00 | 0.01 | 72 | 1001.9 |
| 20260901151024 | 63 | 250 | 1.0 | 0.0 | 0.00 | 0.00 | 0.01 | 69 | 1001.9 |
| 20260901150527 | 64 | 308 | 0.0 | 0.0 | 0.00 | 0.00 | 0.01 | 70 | 1001.9 |
| 20260901150037 | 64 | 302 | 0.0 | 0.0 | 0.00 | 0.00 | 0.01 | 69 | 1001.9 |
| 20260901145538 | 64 | 243 | 0.0 | 0.0 | 0.00 | 0.00 | 0.01 | 69 | 1001.9 |
| 20260901145109 | 64 | 283 | 0.0 | 0.0 | 0.00 | 0.00 | 0.01 | 69 | 1001.9 |
| 20260901144532 | 65 | 113 | 0.0 | 0.0 | 0.00 | 0.00 | 0.01 | 68 | 1001.9 |
| 20260901144041 | 65 | 314 | 1.0 | 0.0 | 0.00 | 0.00 | 0.01 | 70 | 1001.9 |
| 20260901143532 | 65 | 250 | 1.0 | 0.0 | 0.00 | 0.00 | 0.01 | 68 | 1001.9 |
| 20260901143037 | 65 | 143 | 0.0 | 0.0 | 0.00 | 0.00 | 0.01 | 70 | 1001.9 |
| 20260901142538 | 65 | 342 | 1.0 | 0.0 | 0.00 | 0.00 | 0.01 | 69 | 1001.9 |
| 20260901142045 | 65 | 281 | 0.0 | 0.0 | 0.00 | 0.00 | 0.01 | 69 | 1001.9 |
| 20260901141527 | 65 | 226 | 0.0 | 0.0 | 0.00 | 0.00 | 0.01 | 70 | 1001.9 |
| 20260901141039 | 65 | 188 | 0.0 | 0.0 | 0.00 | 0.00 | 0.01 | 68 | 1001.8 |
| 20260901140520 | 65 | 307 | 0.0 | 0.0 | 0.00 | 0.00 | 0.01 | 68 | 1001.8 |
| 20260901140050 | 66 | 67 | 1.0 | 0.0 | 0.00 | 0.00 | 0.01 | 65 | 1001.8 |
| 20260901135537 | 66 | 284 | 1.0 | 0.0 | 0.00 | 0.00 | 0.01 | 65 | 1001.8 |
| 20260901135052 | 67 | 254 | 0.0 | 0.0 | 0.00 | 0.00 | 0.01 | 65 | 1001.8 |
| 20260901134535 | 67 | 266 | 0.0 | 0.0 | 0.00 | 0.00 | 0.01 | 64 | 1001.8 |
| 20260901134157 | 67 | 294 | 0.0 | 0.0 | 0.00 | 0.00 | 0.01 | 63 | 1001.8 |
| 20260901133549 | 67 | 260 | 1.0 | 0.0 | 0.00 | 0.00 | 0.01 | 64 | 1001.8 |
| 20260901133038 | 67 | 271 | 2.0 | 0.0 | 0.00 | 0.00 | 0.01 | 64 | 1001.8 |
| 20260901132540 | 67 | 209 | 2.0 | 0.0 | 0.00 | 0.00 | 0.01 | 64 | 1001.7 |
| 20260901132024 | 67 | 360 | 2.0 | 0.0 | 0.00 | 0.00 | 0.01 | 65 | 1001.7 |
| 20260901131600 | 68 | 191 | 1.0 | 0.0 | 0.00 | 0.00 | 0.01 | 65 | 1001.7 |
| 20260901131021 | 67 | 257 | 1.0 | 0.0 | 0.00 | 0.00 | 0.01 | 65 | 1001.7 |
| 20260901130524 | 67 | 232 | 2.0 | 0.0 | 0.00 | 0.00 | 0.01 | 65 | 1001.7 |
| 20260901130036 | 67 | 136 | 1.0 | 0.0 | 0.00 | 0.00 | 0.01 | 67 | 1001.7 |
| 20260901125539 | 67 | 297 | 1.0 | 0.0 | 0.00 | 0.00 | 0.01 | 66 | 1001.7 |
| 20260901125040 | 67 | 185 | 2.0 | 0.0 | 0.00 | 0.00 | 0.01 | 66 | 1001.7 |
| 20260901124532 | 67 | 243 | 2.0 | 0.0 | 0.00 | 0.00 | 0.01 | 66 | 1001.7 |
| 20260901124035 | 67 | 236 | 1.0 | 0.0 | 0.00 | 0.00 | 0.01 | 67 | 1001.8 |
| 20260901123539 | 66 | 305 | 1.0 | 0.0 | 0.00 | 0.00 | 0.01 | 72 | 1001.8 |
| 20260901123028 | 67 | 297 | 2.0 | 0.0 | 0.00 | 0.00 | 0.01 | 68 | 1001.8 |
| 20260901122550 | 67 | 315 | 1.0 | 0.0 | 0.00 | 0.00 | 0.01 | 68 | 1001.7 |
| 20260901122043 | 67 | 206 | 2.0 | 0.0 | 0.00 | 0.00 | 0.01 | 69 | 1001.7 |
| 20260901121546 | 68 | 230 | 2.0 | 0.0 | 0.00 | 0.00 | 0.01 | 67 | 1001.7 |
| 20260901121045 | 68 | 274 | 1.0 | 0.0 | 0.00 | 0.00 | 0.01 | 67 | 1001.5 |
| 20260901120529 | 68 | 195 | 1.0 | 0.0 | 0.00 | 0.00 | 0.01 | 68 | 1001.5 |
| 20260901120039 | 68 | 230 | 0.0 | 0.0 | 0.00 | 0.00 | 0.01 | 69 | 1001.5 |
| 20260901115520 | 67 | 283 | 0.0 | 0.0 | 0.00 | 0.00 | 0.01 | 73 | 1001.4 |
| 20260901115026 | 67 | 219 | 0.0 | 0.0 | 0.00 | 0.00 | 0.01 | 73 | 1001.4 |
| 20260901114601 | 67 | 271 | 0.0 | 0.0 | 0.00 | 0.00 | 0.01 | 75 | 1001.4 |
| 20260901114023 | 67 | 225 | 1.0 | 0.0 | 0.00 | 0.00 | 0.01 | 73 | 1001.4 |
| 20260901113527 | 67 | 329 | 1.0 | 0.0 | 0.00 | 0.00 | 0.01 | 73 | 1001.4 |
| 20260901113040 | 67 | 58 | 0.0 | 0.0 | 0.00 | 0.00 | 0.01 | 76 | 1001.4 |
| 20260901112520 | 67 | 222 | 0.0 | 0.0 | 0.00 | 0.00 | 0.01 | 76 | 1001.3 |
| 20260901112024 | 67 | 180 | 0.0 | 0.0 | 0.00 | 0.00 | 0.01 | 74 | 1001.3 |
| 20260901111602 | 68 | 274 | 1.0 | 0.0 | 0.00 | 0.00 | 0.01 | 76 | 1001.3 |
| 20260901111027 | 68 | 254 | 1.0 | 0.0 | 0.00 | 0.00 | 0.01 | 74 | 1001.1 |
| 20260901110526 | 69 | 256 | 0.0 | 0.0 | 0.00 | 0.00 | 0.01 | 73 | 1001.2 |
| 20260901110036 | 69 | 20 | 0.0 | 0.0 | 0.00 | 0.00 | 0.01 | 74 | 1001.2 |
| 20260901105538 | 69 | 276 | 0.0 | 0.0 | 0.00 | 0.00 | 0.01 | 72 | 1000.9 |
| 20260901105020 | 69 | 304 | 0.0 | 0.0 | 0.00 | 0.00 | 0.01 | 77 | 1000.9 |
| 20260901104532 | 68 | 226 | 1.0 | 0.0 | 0.00 | 0.00 | 0.01 | 77 | 1000.9 |
| 20260901104027 | 67 | 358 | 1.0 | 0.0 | 0.00 | 0.00 | 0.01 | 79 | 1000.9 |
| 20260901103545 | 67 | 205 | 2.0 | 0.0 | 0.00 | 0.00 | 0.01 | 78 | 1000.9 |
| 20260901103027 | 67 | 153 | 2.0 | 0.0 | 0.00 | 0.00 | 0.01 | 78 | 1000.9 |
| 20260901102525 | 67 | 249 | 2.0 | 0.0 | 0.00 | 0.00 | 0.01 | 76 | 1000.8 |
| 20260901102039 | 67 | 216 | 1.0 | 0.0 | 0.00 | 0.00 | 0.01 | 81 | 1000.8 |
| 20260901101521 | 65 | 205 | 0.0 | 0.0 | 0.00 | 0.00 | 0.01 | 85 | 1000.8 |
| 20260901101022 | 65 | 286 | 0.0 | 0.0 | 0.00 | 0.00 | 0.01 | 85 | 1000.9 |
| 20260901100559 | 65 | 212 | 1.0 | 0.0 | 0.00 | 0.00 | 0.01 | 86 | 1000.9 |
| 20260901100022 | 65 | 273 | 1.0 | 0.0 | 0.00 | 0.00 | 0.01 | 85 | 1000.9 |
| 20260901095551 | 65 | 288 | 0.0 | 0.0 | 0.00 | 0.00 | 0.01 | 87 | 1000.9 |
| 20260901095037 | 65 | 3 | 0.0 | 0.0 | 0.00 | 0.00 | 0.01 | 87 | 1000.9 |
| 20260901094533 | 64 | 201 | 0.0 | 0.0 | 0.00 | 0.00 | 0.01 | 87 | 1000.9 |
| 20260901094033 | 64 | 199 | 0.0 | 0.0 | 0.00 | 0.00 | 0.01 | 88 | 1000.8 |
| 20260901093549 | 65 | 214 | 0.0 | 0.0 | 0.00 | 0.00 | 0.01 | 88 | 1000.8 |
| 20260901093030 | 65 | 212 | 0.0 | 0.0 | 0.00 | 0.00 | 0.01 | 88 | 1000.8 |
| 20260901092546 | 65 | 230 | 0.0 | 0.0 | 0.00 | 0.00 | 0.01 | 88 | 1000.8 |
| 20260901092025 | 65 | 274 | 0.0 | 0.0 | 0.00 | 0.00 | 0.01 | 88 | 1000.8 |
| 20260901091531 | 65 | 206 | 1.0 | 0.0 | 0.00 | 0.00 | 0.01 | 88 | 1000.8 |
| 20260901091047 | 64 | 202 | 1.0 | 0.0 | 0.00 | 0.00 | 0.01 | 88 | 1000.7 |
| 20260901090533 | 65 | 240 | 1.0 | 0.0 | 0.00 | 0.00 | 0.01 | 89 | 1000.7 |
| 20260901090040 | 65 | 274 | 0.0 | 0.0 | 0.00 | 0.00 | 0.01 | 91 | 1000.7 |
| 20260901085527 | 64 | 236 | 0.0 | 0.0 | 0.00 | 0.00 | 0.01 | 92 | 1000.7 |
| 20260901085021 | 64 | 223 | 1.0 | 0.0 | 0.00 | 0.00 | 0.01 | 92 | 1000.7 |
| 20260901084538 | 64 | 278 | 1.0 | 0.0 | 0.00 | 0.00 | 0.01 | 94 | 1000.7 |
| 20260901084050 | 63 | 270 | 1.0 | 0.0 | 0.00 | 0.00 | 0.01 | 95 | 1000.8 |
| 20260901083529 | 63 | 247 | 0.0 | 0.0 | 0.00 | 0.00 | 0.01 | 96 | 1000.8 |
| 20260901083032 | 63 | 222 | 0.0 | 0.0 | 0.00 | 0.00 | 0.01 | 97 | 1000.8 |
| 20260901082532 | 63 | 212 | 0.0 | 0.0 | 0.00 | 0.00 | 0.01 | 98 | 1000.8 |
| 20260901082048 | 63 | 239 | 0.0 | 0.0 | 0.00 | 0.00 | 0.01 | 98 | 1000.8 |
| 20260901081529 | 62 | 243 | 0.0 | 0.0 | 0.00 | 0.00 | 0.01 | 99 | 1000.8 |
| 20260901081105 | 62 | 184 | 1.0 | 0.0 | 0.00 | 0.00 | 0.01 | 100 | 1000.8 |
| 20260901080533 | 62 | 226 | 1.0 | 0.0 | 0.00 | 0.00 | 0.01 | 100 | 1000.8 |
| 20260901080038 | 62 | 208 | 0.0 | 0.0 | 0.00 | 0.00 | 0.01 | 100 | 1000.8 |
| 20260901075549 | 62 | 266 | 0.0 | 0.0 | 0.00 | 0.00 | 0.01 | 100 | 1000.8 |
| 20260901075026 | 61 | 134 | 1.0 | 0.0 | 0.00 | 0.00 | 0.01 | 100 | 1000.8 |
| 20260901074525 | 61 | 190 | 0.0 | 0.0 | 0.00 | 0.00 | 0.01 | 100 | 1000.8 |
| 20260901074033 | 61 | 175 | 1.0 | 0.0 | 0.00 | 0.00 | 0.01 | 100 | 1000.9 |
| 20260901073537 | 61 | 140 | 0.0 | 0.0 | 0.00 | 0.00 | 0.01 | 100 | 1000.9 |
| 20260901073051 | 61 | 239 | 0.0 | 0.0 | 0.00 | 0.00 | 0.01 | 100 | 1000.9 |
| 20260901072527 | 61 | 230 | 0.0 | 0.0 | 0.00 | 0.00 | 0.01 | 100 | 1000.9 |
| 20260901072032 | 60 | 153 | 0.0 | 0.0 | 0.00 | 0.00 | 0.01 | 100 | 1000.9 |
| 20260901071545 | 60 | 191 | 0.0 | 0.0 | 0.00 | 0.00 | 0.01 | 100 | 1000.9 |
| 20260901071020 | 60 | 273 | 0.0 | 0.0 | 0.00 | 0.00 | 0.01 | 100 | 1000.8 |
| 20260901070525 | 60 | 198 | 0.0 | 0.0 | 0.00 | 0.00 | 0.01 | 100 | 1000.8 |
| 20260901070104 | 60 | 140 | 1.0 | 0.0 | 0.00 | 0.00 | 0.01 | 100 | 1000.8 |
| 20260901065527 | 60 | 212 | 1.0 | 0.0 | 0.00 | 0.00 | 0.01 | 100 | 1000.8 |
| 20260901065032 | 60 | 187 | 0.0 | 0.0 | 0.00 | 0.00 | 0.01 | 100 | 1000.8 |
| 20260901064536 | 60 | 219 | 1.0 | 0.0 | 0.00 | 0.00 | 0.01 | 100 | 1000.8 |
| 20260901064050 | 60 | 223 | 1.0 | 0.0 | 0.00 | 0.00 | 0.01 | 100 | 1000.8 |
| 20260901063530 | 60 | 74 | 0.0 | 0.0 | 0.00 | 0.00 | 0.01 | 100 | 1000.8 |
| 20260901063037 | 60 | 243 | 0.0 | 0.0 | 0.00 | 0.00 | 0.01 | 100 | 1000.8 |
| 20260901062545 | 60 | 243 | 0.0 | 0.0 | 0.00 | 0.00 | 0.01 | 100 | 1000.7 |
| 20260901062028 | 60 | 270 | 0.0 | 0.0 | 0.00 | 0.00 | 0.01 | 100 | 1000.7 |
| 20260901061530 | 60 | 205 | 0.0 | 0.0 | 0.00 | 0.00 | 0.01 | 100 | 1000.7 |
| 20260901061111 | 60 | 143 | 0.0 | 0.0 | 0.00 | 0.00 | 0.01 | 100 | 1000.7 |
| 20260901060537 | 60 | 209 | 0.0 | 0.0 | 0.00 | 0.00 | 0.01 | 100 | 1000.7 |
| 20260901060040 | 60 | 256 | 0.0 | 0.0 | 0.00 | 0.00 | 0.01 | 100 | 1000.7 |
| 20260901055533 | 60 | 182 | 0.0 | 0.0 | 0.00 | 0.00 | 0.01 | 100 | 1000.7 |
| 20260901055037 | 59 | 221 | 0.0 | 0.0 | 0.00 | 0.00 | 0.01 | 100 | 1000.7 |
| 20260901054528 | 59 | 205 | 0.0 | 0.0 | 0.00 | 0.00 | 0.01 | 100 | 1000.7 |
| 20260901054033 | 59 | 211 | 0.0 | 0.0 | 0.00 | 0.00 | 0.01 | 100 | 1000.7 |
| 20260901053539 | 59 | 139 | 0.0 | 0.0 | 0.00 | 0.00 | 0.01 | 100 | 1000.7 |
| 20260901053034 | 59 | 280 | 0.0 | 0.0 | 0.00 | 0.00 | 0.01 | 100 | 1000.7 |
| 20260901052537 | 59 | 228 | 0.0 | 0.0 | 0.00 | 0.00 | 0.01 | 100 | 1000.6 |
| 20260901052020 | 59 | 229 | 0.0 | 0.0 | 0.00 | 0.00 | 0.01 | 100 | 1000.6 |
| 20260901051547 | 59 | 235 | 0.0 | 0.0 | 0.00 | 0.00 | 0.01 | 100 | 1000.6 |
| 20260901051041 | 59 | 239 | 0.0 | 0.0 | 0.00 | 0.00 | 0.01 | 100 | 1000.4 |
| 20260901050523 | 59 | 232 | 0.0 | 0.0 | 0.00 | 0.00 | 0.01 | 100 | 1000.4 |
| 20260901050035 | 59 | 185 | 0.0 | 0.0 | 0.00 | 0.00 | 0.01 | 100 | 1000.4 |
| 20260901045520 | 59 | 236 | 0.0 | 0.0 | 0.00 | 0.00 | 0.01 | 100 | 1000.6 |
| 20260901045059 | 59 | 233 | 1.0 | 0.0 | 0.00 | 0.00 | 0.01 | 100 | 1000.6 |
| 20260901044541 | 58 | 144 | 1.0 | 0.0 | 0.00 | 0.00 | 0.01 | 100 | 1000.6 |
| 20260901044021 | 58 | 113 | 0.0 | 0.0 | 0.00 | 0.00 | 0.01 | 100 | 1000.7 |
| 20260901043529 | 58 | 239 | 0.0 | 0.0 | 0.00 | 0.00 | 0.01 | 100 | 1000.7 |
| 20260901043033 | 58 | 161 | 0.0 | 0.0 | 0.00 | 0.00 | 0.01 | 100 | 1000.7 |
| 20260901042520 | 58 | 173 | 0.0 | 0.0 | 0.00 | 0.00 | 0.01 | 100 | 1000.7 |
| 20260901042033 | 58 | 177 | 1.0 | 0.0 | 0.00 | 0.00 | 0.01 | 100 | 1000.7 |
| 20260901041526 | 58 | 144 | 1.0 | 0.0 | 0.00 | 0.00 | 0.01 | 100 | 1000.7 |
| 20260901041059 | 58 | 139 | 0.0 | 0.0 | 0.00 | 0.00 | 0.01 | 100 | 1000.7 |
| 20260901040532 | 58 | 129 | 0.0 | 0.0 | 0.00 | 0.00 | 0.01 | 100 | 1000.7 |
| 20260901040035 | 58 | 133 | 0.0 | 0.0 | 0.00 | 0.00 | 0.01 | 100 | 1000.7 |
| 20260901035526 | 58 | 164 | 0.0 | 0.0 | 0.00 | 0.00 | 0.01 | 100 | 1000.8 |
| 20260901035032 | 58 | 153 | 0.0 | 0.0 | 0.00 | 0.00 | 0.01 | 100 | 1000.8 |
| 20260901034548 | 58 | 153 | 0.0 | 0.0 | 0.00 | 0.00 | 0.01 | 100 | 1000.8 |
| 20260901034052 | 58 | 214 | 0.0 | 0.0 | 0.00 | 0.00 | 0.01 | 100 | 1000.8 |
| 20260901033537 | 58 | 242 | 0.0 | 0.0 | 0.00 | 0.00 | 0.01 | 100 | 1000.8 |
| 20260901033021 | 58 | 192 | 0.0 | 0.0 | 0.00 | 0.00 | 0.01 | 100 | 1000.8 |
| 20260901032530 | 57 | 192 | 0.0 | 0.0 | 0.00 | 0.00 | 0.01 | 100 | 1000.8 |
| 20260901032042 | 57 | 192 | 0.0 | 0.0 | 0.00 | 0.00 | 0.01 | 100 | 1000.8 |
| 20260901031534 | 57 | 192 | 0.0 | 0.0 | 0.00 | 0.00 | 0.01 | 100 | 1000.8 |
| 20260901031037 | 57 | 192 | 0.0 | 0.0 | 0.00 | 0.00 | 0.01 | 100 | 1000.9 |
| 20260901030524 | 57 | 192 | 0.0 | 0.0 | 0.00 | 0.00 | 0.01 | 100 | 1000.9 |
| 20260901030056 | 57 | 192 | 0.0 | 0.0 | 0.00 | 0.00 | 0.01 | 100 | 1000.9 |
| 20260901025541 | 57 | 192 | 0.0 | 0.0 | 0.00 | 0.00 | 0.01 | 100 | 1000.9 |
| 20260901025030 | 57 | 192 | 0.0 | 0.0 | 0.00 | 0.00 | 0.01 | 100 | 1000.9 |
| 20260901024606 | 57 | 192 | 0.0 | 0.0 | 0.00 | 0.00 | 0.01 | 100 | 1000.9 |
| 20260901024025 | 57 | 192 | 0.0 | 0.0 | 0.00 | 0.00 | 0.01 | 100 | 1000.8 |
| 20260901023530 | 57 | 192 | 0.0 | 0.0 | 0.00 | 0.00 | 0.01 | 100 | 1000.8 |
| 20260901023038 | 57 | 192 | 0.0 | 0.0 | 0.00 | 0.00 | 0.01 | 100 | 1000.8 |
| 20260901022522 | 57 | 192 | 0.0 | 0.0 | 0.00 | 0.00 | 0.01 | 100 | 1000.8 |
| 20260901022034 | 57 | 192 | 0.0 | 0.0 | 0.00 | 0.00 | 0.01 | 100 | 1000.8 |
| 20260901021539 | 57 | 192 | 0.0 | 0.0 | 0.00 | 0.00 | 0.01 | 100 | 1000.8 |
| 20260901021054 | 57 | 192 | 0.0 | 0.0 | 0.00 | 0.00 | 0.01 | 100 | 1000.9 |
| 20260901020533 | 57 | 192 | 0.0 | 0.0 | 0.00 | 0.00 | 0.01 | 100 | 1000.9 |
| 20260901020036 | 57 | 192 | 0.0 | 0.0 | 0.00 | 0.00 | 0.01 | 100 | 1000.9 |
| 20260901015546 | 57 | 192 | 0.0 | 0.0 | 0.00 | 0.00 | 0.01 | 100 | 1001.0 |
| 20260901015028 | 57 | 192 | 0.0 | 0.0 | 0.00 | 0.00 | 0.01 | 100 | 1001.0 |
| 20260901014532 | 57 | 192 | 0.0 | 0.0 | 0.00 | 0.00 | 0.01 | 100 | 1001.0 |
| 20260901014042 | 57 | 158 | 0.0 | 0.0 | 0.00 | 0.00 | 0.01 | 100 | 1001.1 |
| 20260901013526 | 57 | 235 | 0.0 | 0.0 | 0.00 | 0.00 | 0.01 | 100 | 1001.1 |
| 20260901013024 | 57 | 218 | 0.0 | 0.0 | 0.00 | 0.00 | 0.01 | 100 | 1001.1 |
| 20260901012533 | 57 | 218 | 0.0 | 0.0 | 0.00 | 0.00 | 0.01 | 100 | 1001.1 |
| 20260901012036 | 57 | 218 | 0.0 | 0.0 | 0.00 | 0.00 | 0.01 | 100 | 1001.1 |
| 20260901011532 | 58 | 215 | 0.0 | 0.0 | 0.00 | 0.00 | 0.01 | 100 | 1001.1 |
| 20260901011042 | 58 | 215 | 0.0 | 0.0 | 0.00 | 0.00 | 0.01 | 100 | 1001.2 |
| 20260901010528 | 58 | 215 | 0.0 | 0.0 | 0.00 | 0.00 | 0.01 | 100 | 1001.2 |
| 20260901010028 | 58 | 215 | 0.0 | 0.0 | 0.00 | 0.00 | 0.01 | 100 | 1001.2 |